| time (UTC) | temp F | wind direction | speed knots | gust knots | rain 1hr in | rain 24hr in | rain mn in | humidity % | barometer mb |
| 20260906194718 | 74 | 0 | 0.0 | 0.0 | 0.00 | 0.00 | 0.00 | 77 | 1023.8 |
| 20260906193603 | 75 | 0 | 0.0 | 0.0 | 0.00 | 0.00 | 0.00 | 77 | 1023.7 |
| 20260906192703 | 75 | 0 | 0.0 | 0.0 | 0.00 | 0.00 | 0.00 | 76 | 1023.5 |
| 20260906191803 | 75 | 0 | 0.0 | 0.0 | 0.00 | 0.00 | 0.00 | 75 | 1023.5 |
| 20260906190904 | 76 | 0 | 0.0 | 0.0 | 0.00 | 0.00 | 0.00 | 74 | 1023.5 |
| 20260906190003 | 77 | 0 | 0.0 | 0.0 | 0.00 | 0.00 | 0.00 | 73 | 1023.4 |
| 20260906185403 | 77 | 0 | 0.0 | 0.0 | 0.00 | 0.00 | 0.00 | 72 | 1023.3 |
| 20260906184503 | 77 | 224 | 0.9 | 1.7 | 0.00 | 0.00 | 0.00 | 73 | 1023.3 |
| 20260906183603 | 77 | 228 | 0.0 | 1.7 | 0.00 | 0.00 | 0.00 | 71 | 1023.3 |
| 20260906182703 | 77 | 0 | 0.0 | 0.0 | 0.00 | 0.00 | 0.00 | 72 | 1023.1 |
| 20260906181803 | 78 | 0 | 0.0 | 0.0 | 0.00 | 0.00 | 0.00 | 72 | 1023.1 |
| 20260906180903 | 78 | 0 | 0.0 | 0.0 | 0.00 | 0.00 | 0.00 | 70 | 1023.0 |
| 20260906180217 | 78 | 0 | 0.0 | 0.0 | 0.00 | 0.00 | 0.00 | 71 | 1023.0 |
| 20260906175403 | 79 | 0 | 0.0 | 0.0 | 0.00 | 0.00 | 0.00 | 70 | 1023.0 |
| 20260906174504 | 80 | 0 | 0.0 | 0.0 | 0.00 | 0.00 | 0.00 | 69 | 1023.0 |
| 20260906173603 | 81 | 0 | 0.0 | 0.0 | 0.00 | 0.00 | 0.00 | 69 | 1023.0 |
| 20260906172703 | 82 | 0 | 0.0 | 0.0 | 0.00 | 0.00 | 0.00 | 67 | 1023.0 |
| 20260906172018 | 82 | 0 | 0.0 | 0.0 | 0.00 | 0.00 | 0.00 | 66 | 1022.9 |
| 20260906170903 | 83 | 0 | 0.0 | 0.0 | 0.00 | 0.00 | 0.00 | 65 | 1022.8 |
| 20260906170004 | 84 | 0 | 0.0 | 0.0 | 0.00 | 0.00 | 0.00 | 64 | 1022.6 |
| 20260906165403 | 84 | 191 | 0.9 | 1.7 | 0.00 | 0.00 | 0.00 | 61 | 1022.6 |
| 20260906164503 | 85 | 191 | 0.9 | 1.7 | 0.00 | 0.00 | 0.00 | 61 | 1022.5 |
| 20260906163604 | 86 | 189 | 0.9 | 2.6 | 0.00 | 0.00 | 0.00 | 53 | 1022.4 |
| 20260906162918 | 86 | 166 | 0.0 | 3.5 | 0.00 | 0.00 | 0.00 | 55 | 1022.3 |
| 20260906161803 | 87 | 93 | 0.0 | 1.7 | 0.00 | 0.00 | 0.00 | 57 | 1022.4 |
| 20260906161116 | 87 | 82 | 0.9 | 1.7 | 0.00 | 0.00 | 0.00 | 54 | 1022.4 |
| 20260906160218 | 86 | 160 | 1.7 | 3.5 | 0.00 | 0.00 | 0.00 | 52 | 1022.3 |
| 20260906155403 | 87 | 126 | 1.7 | 2.6 | 0.00 | 0.00 | 0.00 | 53 | 1022.3 |
| 20260906154504 | 87 | 134 | 0.9 | 3.5 | 0.00 | 0.00 | 0.00 | 51 | 1022.3 |
| 20260906153603 | 88 | 158 | 1.7 | 3.5 | 0.00 | 0.00 | 0.00 | 52 | 1022.3 |
| 20260906152703 | 87 | 118 | 1.7 | 5.2 | 0.00 | 0.00 | 0.00 | 52 | 1022.3 |
| 20260906151803 | 88 | 148 | 0.9 | 5.2 | 0.00 | 0.00 | 0.00 | 52 | 1022.4 |
| 20260906150904 | 87 | 179 | 1.7 | 4.3 | 0.00 | 0.00 | 0.00 | 51 | 1022.4 |
| 20260906150003 | 87 | 165 | 1.7 | 4.3 | 0.00 | 0.00 | 0.00 | 51 | 1022.6 |
| 20260906145403 | 87 | 106 | 2.6 | 7.0 | 0.00 | 0.00 | 0.00 | 51 | 1022.6 |
| 20260906144504 | 86 | 112 | 1.7 | 7.0 | 0.00 | 0.00 | 0.00 | 52 | 1022.7 |
| 20260906143603 | 86 | 219 | 2.6 | 3.5 | 0.00 | 0.00 | 0.00 | 53 | 1022.8 |
| 20260906142703 | 85 | 109 | 3.5 | 7.8 | 0.00 | 0.00 | 0.00 | 53 | 1022.8 |
| 20260906141804 | 86 | 106 | 3.5 | 9.6 | 0.00 | 0.00 | 0.00 | 53 | 1022.8 |
| 20260906140903 | 86 | 119 | 2.6 | 7.0 | 0.00 | 0.00 | 0.00 | 52 | 1022.8 |
| 20260906140003 | 87 | 142 | 1.7 | 6.1 | 0.00 | 0.00 | 0.00 | 52 | 1022.9 |
| 20260906135403 | 87 | 156 | 1.7 | 6.1 | 0.00 | 0.00 | 0.00 | 52 | 1023.0 |
| 20260906134504 | 86 | 193 | 1.7 | 5.2 | 0.00 | 0.00 | 0.00 | 53 | 1023.0 |
| 20260906133603 | 87 | 192 | 0.9 | 3.5 | 0.00 | 0.00 | 0.00 | 52 | 1023.0 |
| 20260906132703 | 86 | 34 | 3.5 | 4.3 | 0.00 | 0.00 | 0.00 | 54 | 1023.0 |
| 20260906132018 | 85 | 86 | 3.5 | 7.8 | 0.00 | 0.00 | 0.00 | 54 | 1023.1 |
| 20260906130904 | 85 | 176 | 3.5 | 6.1 | 0.00 | 0.00 | 0.00 | 55 | 1023.2 |
| 20260906130003 | 85 | 196 | 2.6 | 7.0 | 0.00 | 0.00 | 0.00 | 53 | 1023.2 |
| 20260906125616 | 85 | 201 | 2.6 | 7.0 | 0.00 | 0.00 | 0.00 | 54 | 1023.2 |
| 20260906124504 | 86 | 142 | 1.7 | 5.2 | 0.00 | 0.00 | 0.00 | 53 | 1023.3 |
| 20260906123817 | 86 | 184 | 1.7 | 5.2 | 0.00 | 0.00 | 0.00 | 54 | 1023.4 |
| 20260906122703 | 85 | 144 | 1.7 | 5.2 | 0.00 | 0.00 | 0.00 | 55 | 1023.5 |
| 20260906121804 | 85 | 109 | 1.7 | 5.2 | 0.00 | 0.00 | 0.00 | 55 | 1023.4 |
| 20260906120903 | 84 | 130 | 3.5 | 6.1 | 0.00 | 0.00 | 0.00 | 55 | 1023.5 |
| 20260906120003 | 84 | 121 | 2.6 | 7.0 | 0.00 | 0.00 | 0.00 | 55 | 1023.5 |
| 20260906115618 | 84 | 122 | 2.6 | 7.0 | 0.00 | 0.00 | 0.00 | 55 | 1023.5 |
| 20260906114717 | 84 | 52 | 2.6 | 6.1 | 0.00 | 0.00 | 0.00 | 57 | 1023.6 |
| 20260906113604 | 83 | 96 | 3.5 | 6.1 | 0.00 | 0.00 | 0.00 | 55 | 1023.7 |
| 20260906112704 | 83 | 119 | 2.6 | 7.0 | 0.00 | 0.00 | 0.00 | 56 | 1023.6 |
| 20260906111803 | 83 | 127 | 3.5 | 7.0 | 0.00 | 0.00 | 0.00 | 55 | 1023.6 |
| 20260906111117 | 84 | 102 | 2.6 | 7.0 | 0.00 | 0.00 | 0.00 | 54 | 1023.5 |
| 20260906110003 | 83 | 95 | 1.7 | 5.2 | 0.00 | 0.00 | 0.00 | 55 | 1023.8 |
| 20260906105403 | 82 | 121 | 2.6 | 4.3 | 0.00 | 0.00 | 0.00 | 56 | 1023.7 |
| 20260906104503 | 82 | 107 | 3.5 | 7.0 | 0.00 | 0.00 | 0.00 | 55 | 1023.8 |
| 20260906103603 | 82 | 90 | 3.5 | 7.8 | 0.00 | 0.00 | 0.00 | 55 | 1023.9 |
| 20260906102704 | 82 | 67 | 1.7 | 6.1 | 0.00 | 0.00 | 0.00 | 55 | 1023.9 |
| 20260906101804 | 82 | 172 | 1.7 | 4.3 | 0.00 | 0.00 | 0.00 | 56 | 1024.0 |
| 20260906100903 | 82 | 217 | 0.9 | 4.3 | 0.00 | 0.00 | 0.00 | 58 | 1024.0 |
| 20260906100003 | 82 | 180 | 0.9 | 4.3 | 0.00 | 0.00 | 0.00 | 57 | 1024.2 |
| 20260906095403 | 82 | 170 | 0.9 | 3.5 | 0.00 | 0.00 | 0.00 | 58 | 1024.3 |
| 20260906094503 | 82 | 300 | 1.7 | 3.5 | 0.00 | 0.00 | 0.00 | 55 | 1024.3 |
| 20260906093818 | 82 | 346 | 1.7 | 3.5 | 0.00 | 0.00 | 0.00 | 55 | 1024.3 |
| 20260906092703 | 82 | 31 | 1.7 | 3.5 | 0.00 | 0.00 | 0.00 | 54 | 1024.4 |
| 20260906091804 | 82 | 64 | 1.7 | 7.0 | 0.00 | 0.00 | 0.00 | 54 | 1024.5 |
| 20260906090903 | 82 | 32 | 1.7 | 6.1 | 0.00 | 0.00 | 0.00 | 56 | 1024.5 |
| 20260906090003 | 82 | 21 | 1.7 | 4.3 | 0.00 | 0.00 | 0.00 | 55 | 1024.4 |
| 20260906085619 | 81 | 19 | 1.7 | 4.3 | 0.00 | 0.00 | 0.00 | 55 | 1024.3 |
| 20260906084503 | 81 | 230 | 1.7 | 6.1 | 0.00 | 0.00 | 0.00 | 55 | 1024.3 |
| 20260906083603 | 81 | 245 | 0.9 | 3.5 | 0.00 | 0.00 | 0.00 | 53 | 1024.4 |
| 20260906082703 | 80 | 321 | 2.6 | 3.5 | 0.00 | 0.00 | 0.00 | 55 | 1024.3 |
| 20260906081804 | 79 | 360 | 3.5 | 7.0 | 0.00 | 0.00 | 0.00 | 54 | 1024.4 |
| 20260906080903 | 79 | 9 | 3.5 | 7.0 | 0.00 | 0.00 | 0.00 | 52 | 1024.2 |
| 20260906080217 | 79 | 325 | 3.5 | 7.0 | 0.00 | 0.00 | 0.00 | 53 | 1024.2 |
| 20260906075403 | 78 | 350 | 3.5 | 6.1 | 0.00 | 0.00 | 0.00 | 54 | 1024.1 |
| 20260906074503 | 78 | 7 | 2.6 | 7.0 | 0.00 | 0.00 | 0.00 | 54 | 1024.0 |
| 20260906073604 | 78 | 9 | 1.7 | 3.5 | 0.00 | 0.00 | 0.00 | 55 | 1023.9 |
| 20260906072703 | 77 | 347 | 1.7 | 3.5 | 0.00 | 0.00 | 0.00 | 55 | 1023.9 |
| 20260906071803 | 76 | 289 | 3.5 | 6.1 | 0.00 | 0.00 | 0.00 | 56 | 1023.9 |
| 20260906070904 | 76 | 325 | 3.5 | 7.0 | 0.00 | 0.00 | 0.00 | 55 | 1023.7 |
| 20260906070003 | 75 | 345 | 4.3 | 8.7 | 0.00 | 0.00 | 0.00 | 55 | 1023.8 |
| 20260906065403 | 75 | 330 | 4.3 | 8.7 | 0.00 | 0.00 | 0.00 | 56 | 1023.7 |
| 20260906064503 | 74 | 345 | 2.6 | 7.0 | 0.00 | 0.00 | 0.00 | 56 | 1023.6 |
| 20260906063604 | 74 | 349 | 3.5 | 4.3 | 0.00 | 0.00 | 0.00 | 55 | 1023.6 |
| 20260906062703 | 74 | 287 | 2.6 | 7.0 | 0.00 | 0.00 | 0.00 | 56 | 1023.5 |
| 20260906061803 | 74 | 297 | 2.6 | 6.1 | 0.00 | 0.00 | 0.00 | 56 | 1023.3 |
| 20260906060904 | 74 | 348 | 2.6 | 6.1 | 0.00 | 0.00 | 0.00 | 56 | 1023.2 |
| 20260906060003 | 74 | 10 | 2.6 | 4.3 | 0.00 | 0.00 | 0.00 | 54 | 1023.1 |
| 20260906055618 | 74 | 12 | 2.6 | 4.3 | 0.00 | 0.00 | 0.00 | 54 | 1023.1 |
| 20260906054503 | 74 | 354 | 2.6 | 6.1 | 0.00 | 0.00 | 0.00 | 55 | 1022.8 |
| 20260906053603 | 73 | 359 | 1.7 | 5.2 | 0.00 | 0.00 | 0.00 | 56 | 1022.7 |
| 20260906052704 | 72 | 311 | 1.7 | 3.5 | 0.00 | 0.00 | 0.00 | 56 | 1022.5 |
| 20260906052017 | 72 | 305 | 2.6 | 4.3 | 0.00 | 0.00 | 0.00 | 56 | 1022.5 |
| 20260906050903 | 73 | 334 | 1.7 | 2.6 | 0.00 | 0.00 | 0.00 | 55 | 1022.2 |
| 20260906050218 | 73 | 335 | 1.7 | 2.6 | 0.00 | 0.00 | 0.00 | 55 | 1022.2 |
| 20260906045403 | 73 | 335 | 2.6 | 4.3 | 0.00 | 0.00 | 0.00 | 54 | 1022.0 |
| 20260906044504 | 73 | 337 | 2.6 | 6.1 | 0.00 | 0.00 | 0.00 | 54 | 1022.0 |
| 20260906043603 | 73 | 340 | 3.5 | 6.1 | 0.00 | 0.00 | 0.00 | 54 | 1021.9 |
| 20260906042704 | 73 | 13 | 3.5 | 6.1 | 0.00 | 0.00 | 0.00 | 54 | 1021.9 |
| 20260906041803 | 73 | 1 | 3.5 | 7.0 | 0.00 | 0.00 | 0.00 | 53 | 1021.9 |
| 20260906040903 | 74 | 11 | 3.5 | 6.1 | 0.00 | 0.00 | 0.00 | 52 | 1021.8 |
| 20260906040003 | 74 | 358 | 2.6 | 6.1 | 0.00 | 0.00 | 0.00 | 52 | 1021.8 |
| 20260906035403 | 74 | 349 | 2.6 | 4.3 | 0.00 | 0.00 | 0.00 | 52 | 1021.7 |
| 20260906034504 | 74 | 322 | 2.6 | 4.3 | 0.00 | 0.00 | 0.00 | 52 | 1021.7 |
| 20260906033603 | 74 | 336 | 2.6 | 6.1 | 0.00 | 0.00 | 0.00 | 52 | 1021.6 |
| 20260906032703 | 74 | 357 | 2.6 | 4.3 | 0.00 | 0.00 | 0.00 | 52 | 1021.6 |
| 20260906031803 | 74 | 8 | 1.7 | 5.2 | 0.00 | 0.00 | 0.00 | 52 | 1021.6 |
| 20260906030903 | 74 | 332 | 2.6 | 5.2 | 0.00 | 0.00 | 0.00 | 52 | 1021.6 |
| 20260906030004 | 74 | 330 | 2.6 | 5.2 | 0.00 | 0.00 | 0.00 | 53 | 1021.5 |
| 20260906025403 | 74 | 348 | 2.6 | 5.2 | 0.00 | 0.00 | 0.00 | 53 | 1021.4 |
| 20260906024718 | 73 | 342 | 1.7 | 5.2 | 0.00 | 0.00 | 0.00 | 53 | 1021.5 |
| 20260906023604 | 73 | 341 | 1.7 | 4.3 | 0.00 | 0.00 | 0.00 | 54 | 1021.4 |
| 20260906022917 | 73 | 341 | 0.9 | 4.3 | 0.00 | 0.00 | 0.00 | 57 | 1021.3 |
| 20260906021803 | 73 | 296 | 0.9 | 3.5 | 0.00 | 0.00 | 0.00 | 56 | 1021.3 |
| 20260906020903 | 73 | 252 | 0.9 | 1.7 | 0.00 | 0.00 | 0.00 | 55 | 1021.2 |
| 20260906015618 | 74 | 0 | 0.0 | 0.0 | 0.00 | 0.00 | 0.00 | 54 | 1021.0 |
| 20260906014504 | 75 | 283 | 1.7 | 2.6 | 0.00 | 0.00 | 0.00 | 52 | 1020.9 |
| 20260906013603 | 75 | 346 | 2.6 | 4.3 | 0.00 | 0.00 | 0.00 | 51 | 1020.9 |
| 20260906012703 | 75 | 10 | 2.6 | 4.3 | 0.00 | 0.00 | 0.00 | 49 | 1020.9 |
| 20260906011803 | 75 | 13 | 2.6 | 3.5 | 0.00 | 0.00 | 0.00 | 49 | 1020.8 |
| 20260906010903 | 75 | 355 | 2.6 | 4.3 | 0.00 | 0.00 | 0.00 | 49 | 1020.8 |
| 20260906010003 | 75 | 308 | 2.6 | 5.2 | 0.00 | 0.00 | 0.00 | 49 | 1020.8 |
| 20260906005618 | 76 | 289 | 2.6 | 4.3 | 0.00 | 0.00 | 0.00 | 49 | 1020.7 |
| 20260906004503 | 76 | 291 | 1.7 | 3.5 | 0.00 | 0.00 | 0.00 | 48 | 1020.7 |
| 20260906003603 | 77 | 32 | 2.6 | 7.0 | 0.00 | 0.00 | 0.00 | 47 | 1020.8 |
| 20260906002703 | 77 | 41 | 2.6 | 9.6 | 0.00 | 0.00 | 0.00 | 47 | 1020.8 |
| 20260906001803 | 77 | 58 | 2.6 | 6.1 | 0.00 | 0.00 | 0.00 | 46 | 1020.8 |
| 20260906000903 | 78 | 14 | 3.5 | 6.1 | 0.00 | 0.00 | 0.00 | 45 | 1020.6 |
| 20260906000003 | 78 | 340 | 3.5 | 6.1 | 0.00 | 0.00 | 0.00 | 45 | 1020.5 |
| 20260905235617 | 78 | 322 | 2.6 | 7.0 | 0.00 | 0.00 | 0.00 | 45 | 1020.4 |
| 20260905234503 | 78 | 273 | 2.6 | 6.1 | 0.00 | 0.00 | 0.00 | 44 | 1020.4 |
| 20260905233603 | 79 | 261 | 3.5 | 8.7 | 0.00 | 0.00 | 0.00 | 43 | 1020.5 |
| 20260905232918 | 79 | 280 | 4.3 | 8.7 | 0.00 | 0.00 | 0.00 | 43 | 1020.5 |
| 20260905232017 | 79 | 301 | 5.2 | 8.7 | 0.00 | 0.00 | 0.00 | 43 | 1020.4 |
| 20260905230904 | 79 | 289 | 4.3 | 9.6 | 0.00 | 0.00 | 0.00 | 42 | 1020.4 |
| 20260905230003 | 79 | 277 | 5.2 | 10.4 | 0.00 | 0.00 | 0.00 | 42 | 1020.4 |
| 20260905225617 | 79 | 291 | 5.2 | 10.4 | 0.00 | 0.00 | 0.00 | 43 | 1020.3 |
| 20260905224503 | 79 | 291 | 4.3 | 11.3 | 0.00 | 0.00 | 0.00 | 43 | 1020.3 |
| 20260905223603 | 78 | 280 | 4.3 | 8.7 | 0.00 | 0.00 | 0.00 | 44 | 1020.3 |
| 20260905222704 | 78 | 302 | 4.3 | 7.8 | 0.00 | 0.00 | 0.00 | 45 | 1020.3 |
| 20260905221803 | 78 | 285 | 2.6 | 7.0 | 0.00 | 0.00 | 0.00 | 46 | 1020.2 |
| 20260905220903 | 78 | 299 | 2.6 | 5.2 | 0.00 | 0.00 | 0.00 | 45 | 1020.2 |
| 20260905220003 | 79 | 1 | 3.5 | 4.3 | 0.00 | 0.00 | 0.00 | 45 | 1020.2 |
| 20260905215403 | 79 | 5 | 3.5 | 4.3 | 0.00 | 0.00 | 0.00 | 44 | 1020.1 |
| 20260905214503 | 79 | 4 | 3.5 | 4.3 | 0.00 | 0.00 | 0.00 | 45 | 1020.1 |
| 20260905213603 | 79 | 3 | 4.3 | 6.1 | 0.00 | 0.00 | 0.00 | 45 | 1020.1 |
| 20260905212703 | 79 | 8 | 3.5 | 6.1 | 0.00 | 0.00 | 0.00 | 46 | 1020.0 |
| 20260905211804 | 79 | 352 | 3.5 | 4.3 | 0.00 | 0.00 | 0.00 | 46 | 1020.0 |
| 20260905210903 | 80 | 354 | 4.3 | 7.0 | 0.00 | 0.00 | 0.00 | 46 | 1019.9 |
| 20260905210003 | 80 | 5 | 5.2 | 7.8 | 0.00 | 0.00 | 0.00 | 45 | 1019.8 |
| 20260905205403 | 80 | 346 | 5.2 | 7.8 | 0.00 | 0.00 | 0.00 | 45 | 1019.8 |
| 20260905204503 | 80 | 326 | 5.2 | 8.7 | 0.00 | 0.00 | 0.00 | 44 | 1019.7 |
| 20260905203604 | 80 | 339 | 6.1 | 10.4 | 0.00 | 0.00 | 0.00 | 45 | 1019.7 |
| 20260905202703 | 80 | 337 | 5.2 | 8.7 | 0.00 | 0.00 | 0.00 | 45 | 1019.6 |
| 20260905201803 | 80 | 317 | 4.3 | 7.8 | 0.00 | 0.00 | 0.00 | 48 | 1019.6 |
| 20260905200903 | 78 | 338 | 3.5 | 7.8 | 0.00 | 0.00 | 0.00 | 51 | 1019.5 |
| 20260905200003 | 77 | 358 | 1.7 | 6.1 | 0.00 | 0.00 | 0.00 | 58 | 1019.4 |
| 20260905195618 | 76 | 355 | 0.9 | 4.3 | 0.00 | 0.00 | 0.00 | 62 | 1019.3 |